Total_Precipitation_Accumulation
1.10 1.28 1.18 0.85 0.74 0.66 0.57 0.58 0.57 0.47 0.42 0.57 0.53 0.43 0.33 0.32 0.30 0.34 0.45 0.49 0.56 0.56 0.60 0.75 0.92 1.09 1.26 1.40 1.48 1.56 1.75 1.84 2.07 2.26 2.21 2.18 2.15 2.13 2.10 2.09 2.11 2.05 2.07 2.06
1.27 1.04 0.62 0.50 0.55 0.63 0.69 0.72 0.64 0.53 0.47 0.63 0.61 0.49 0.36 0.36 0.35 0.36 0.44 0.49 0.53 0.56 0.63 0.72 0.88 1.02 1.15 1.27 1.34 1.42 1.63 1.81 1.98 2.14 2.12 2.04 2.03 2.02 2.02 1.99 2.06 2.17 2.20 2.19
1.06 0.67 0.42 0.62 0.77 0.78 0.71 0.66 0.60 0.58 0.58 0.65 0.70 0.65 0.43 0.37 0.33 0.36 0.42 0.51 0.57 0.54 0.59 0.65 0.76 0.91 1.03 1.15 1.21 1.33 1.57 1.77 2.00 2.17 2.32 2.28 2.29 2.28 2.22 2.09 2.00 2.02 2.07 2.04
0.84 0.51 0.50 0.72 0.82 0.79 0.72 0.46 0.49 0.60 0.88 1.00 0.84 0.96 0.54 0.39 0.37 0.38 0.41 0.45 0.52 0.53 0.57 0.64 0.72 0.83 0.93 1.04 1.12 1.24 1.56 1.80 1.98 2.15 2.26 2.33 2.29 2.21 2.10 2.00 1.94 1.90 1.86 1.87
0.99 0.60 0.60 0.72 0.66 0.67 0.63 0.44 0.51 0.71 0.98 1.10 0.83 0.96 0.61 0.40 0.45 0.44 0.43 0.43 0.44 0.48 0.53 0.62 0.71 0.80 0.91 1.03 1.06 1.17 1.39 1.66 1.89 2.09 2.17 2.25 2.23 2.13 2.09 2.11 2.10 2.09 2.00 1.89
0.72 0.52 0.64 0.64 0.51 0.59 0.71 0.80 0.90 1.05 1.55 1.75 0.72 0.70 0.59 0.49 0.57 0.52 0.46 0.43 0.40 0.44 0.50 0.61 0.71 0.76 0.89 1.10 1.14 1.18 1.28 1.48 1.74 1.94 2.01 2.05 2.08 2.05 2.04 2.09 2.10 2.10 2.00 1.88
0.95 0.65 0.58 0.58 0.77 0.93 1.16 1.71 2.49 2.63 2.61 1.57 0.43 0.50 0.61 0.51 0.48 0.54 0.52 0.44 0.39 0.43 0.50 0.55 0.63 0.76 0.84 1.02 1.13 1.20 1.27 1.31 1.51 1.75 1.87 1.84 1.91 1.90 1.89 1.94 1.93 1.92 1.90 1.81
1.06 0.85 0.61 0.60 0.86 1.20 1.28 1.57 2.00 1.88 1.31 0.68 0.34 0.43 0.51 0.46 0.41 0.42 0.46 0.44 0.40 0.42 0.49 0.52 0.53 0.70 0.85 0.93 1.02 1.13 1.22 1.27 1.37 1.50 1.67 1.72 1.85 1.85 1.80 1.85 1.87 1.82 1.75 1.67
1.08 0.74 0.42 0.46 0.54 0.75 1.12 1.26 1.11 1.41 0.96 0.67 0.50 0.35 0.34 0.31 0.33 0.32 0.39 0.42 0.45 0.47 0.50 0.53 0.55 0.65 0.79 0.86 0.93 1.06 1.18 1.30 1.33 1.34 1.50 1.59 1.69 1.76 1.72 1.71 1.73 1.74 1.69 1.66
1.18 1.04 0.51 0.48 0.64 0.77 0.90 1.03 1.35 1.90 1.57 0.88 0.48 0.34 0.42 0.39 0.38 0.34 0.36 0.43 0.47 0.50 0.50 0.53 0.59 0.65 0.76 0.84 0.90 1.01 1.08 1.26 1.42 1.39 1.42 1.55 1.60 1.66 1.70 1.65 1.62 1.54 1.51 1.58
1.14 1.35 0.87 0.71 0.94 0.94 0.91 1.20 1.52 1.70 1.40 1.07 0.66 0.50 0.49 0.44 0.43 0.43 0.42 0.48 0.53 0.55 0.54 0.55 0.63 0.70 0.74 0.81 0.88 1.04 1.10 1.20 1.42 1.51 1.48 1.50 1.59 1.63 1.69 1.69 1.59 1.47 1.41 1.44
1.09 1.54 1.20 0.71 0.58 0.57 0.75 0.97 1.21 1.64 1.31 0.87 0.76 0.53 0.38 0.35 0.36 0.38 0.42 0.47 0.55 0.58 0.63 0.63 0.70 0.73 0.75 0.81 0.87 0.99 1.06 1.14 1.32 1.50 1.59 1.56 1.58 1.70 1.73 1.67 1.60 1.54 1.49 1.46
1.76 2.22 1.89 1.35 1.03 0.88 1.01 0.91 0.94 1.13 1.21 0.93 0.79 0.50 0.29 0.21 0.23 0.27 0.36 0.47 0.54 0.55 0.64 0.68 0.70 0.70 0.75 0.78 0.85 0.98 1.02 1.03 1.13 1.32 1.50 1.62 1.66 1.71 1.77 1.71 1.61 1.60 1.62 1.60
2.33 2.49 1.67 1.37 1.09 0.98 0.97 0.77 0.79 1.21 1.49 0.85 0.49 0.42 0.28 0.22 0.23 0.28 0.35 0.42 0.50 0.55 0.61 0.61 0.62 0.67 0.73 0.71 0.77 0.91 1.00 1.00 1.00 1.14 1.34 1.47 1.59 1.72 1.76 1.76 1.73 1.66 1.65 1.65
2.28 2.21 0.94 0.52 0.43 0.55 0.62 0.56 0.62 0.87 0.86 0.77 0.43 0.36 0.39 0.40 0.40 0.41 0.44 0.44 0.45 0.51 0.57 0.60 0.61 0.66 0.70 0.66 0.70 0.81 0.94 0.98 0.98 1.03 1.19 1.38 1.49 1.67 1.74 1.74 1.74 1.76 1.78 1.68
2.03 1.98 1.00 0.59 0.33 0.43 0.51 0.43 0.45 0.51 0.48 0.48 0.34 0.32 0.30 0.35 0.37 0.39 0.43 0.47 0.50 0.55 0.59 0.60 0.59 0.60 0.64 0.66 0.70 0.76 0.85 0.91 0.98 1.04 1.08 1.27 1.49 1.63 1.71 1.72 1.76 1.77 1.79 1.75
1.86 1.85 1.60 1.01 0.46 0.78 0.93 0.58 0.52 0.52 0.49 0.51 0.55 0.47 0.33 0.31 0.36 0.46 0.51 0.52 0.55 0.60 0.64 0.62 0.60 0.60 0.64 0.66 0.69 0.76 0.82 0.87 0.91 0.92 0.96 1.10 1.30 1.48 1.60 1.65 1.73 1.86 1.85 1.78
1.46 1.65 2.09 1.56 1.16 1.53 0.86 0.46 0.44 0.53 0.58 0.56 0.55 0.47 0.42 0.42 0.43 0.47 0.56 0.63 0.60 0.63 0.65 0.63 0.63 0.63 0.66 0.66 0.68 0.76 0.79 0.79 0.83 0.84 0.83 0.90 1.05 1.23 1.42 1.58 1.65 1.75 1.85 1.83
0.88 1.57 2.38 2.13 1.67 0.99 0.48 0.40 0.56 0.64 0.67 0.59 0.54 0.44 0.39 0.37 0.36 0.41 0.51 0.66 0.74 0.73 0.68 0.64 0.62 0.61 0.61 0.65 0.70 0.71 0.75 0.79 0.78 0.80 0.80 0.82 0.90 1.03 1.20 1.38 1.51 1.62 1.73 1.77
0.92 1.54 2.54 2.31 1.81 0.97 0.54 0.36 0.40 0.56 0.76 0.53 0.52 0.52 0.47 0.46 0.52 0.52 0.54 0.63 0.71 0.69 0.66 0.64 0.60 0.56 0.58 0.64 0.68 0.69 0.74 0.78 0.82 0.82 0.82 0.82 0.86 0.91 1.04 1.20 1.35 1.51 1.62 1.68
1.29 1.98 2.34 1.83 1.57 0.81 0.48 0.36 0.36 0.78 0.88 0.53 0.54 0.61 0.60 0.64 0.67 0.59 0.52 0.54 0.59 0.60 0.60 0.59 0.56 0.55 0.61 0.64 0.66 0.72 0.73 0.77 0.80 0.80 0.79 0.80 0.81 0.84 0.92 1.08 1.23 1.39 1.50 1.59
0.94 1.30 1.30 1.24 1.52 0.94 0.49 0.44 0.71 0.89 0.59 0.53 0.53 0.56 0.61 0.58 0.53 0.52 0.50 0.50 0.49 0.52 0.53 0.55 0.56 0.58 0.60 0.60 0.65 0.73 0.74 0.74 0.73 0.73 0.74 0.76 0.75 0.78 0.85 1.00 1.13 1.25 1.39 1.52
0.72 0.94 1.00 0.94 0.89 0.65 0.58 0.68 0.71 0.66 0.61 0.53 0.54 0.52 0.57 0.59 0.56 0.53 0.49 0.47 0.47 0.49 0.50 0.51 0.55 0.57 0.57 0.58 0.62 0.74 0.75 0.71 0.68 0.68 0.70 0.72 0.74 0.77 0.80 0.87 1.02 1.22 1.31 1.41
0.54 0.52 0.69 0.69 0.53 0.45 0.44 0.46 0.50 0.54 0.57 0.53 0.54 0.57 0.57 0.60 0.57 0.51 0.45 0.44 0.44 0.47 0.48 0.48 0.49 0.53 0.58 0.62 0.63 0.68 0.71 0.70 0.64 0.66 0.70 0.69 0.73 0.79 0.77 0.80 0.91 1.11 1.27 1.37
0.51 0.49 0.56 0.59 0.45 0.38 0.34 0.35 0.40 0.42 0.41 0.41 0.44 0.50 0.54 0.55 0.51 0.46 0.44 0.42 0.42 0.46 0.48 0.47 0.49 0.53 0.62 0.68 0.65 0.62 0.64 0.66 0.64 0.65 0.69 0.70 0.70 0.75 0.79 0.84 0.92 1.03 1.17 1.42
0.46 0.53 0.64 0.61 0.46 0.53 0.43 0.34 0.34 0.36 0.36 0.38 0.41 0.43 0.43 0.45 0.45 0.39 0.39 0.40 0.42 0.44 0.44 0.45 0.45 0.49 0.57 0.64 0.64 0.60 0.62 0.64 0.66 0.67 0.67 0.70 0.73 0.74 0.75 0.83 0.96 1.09 1.15 1.26